DW7251 Weather Reports


Display with metric or nautical units.
time (UTC)temp
F
wind
direction
speed
MPH
gust
MPH
rain 1hr
in
rain 24hr
in
rain mn
in
humidity
%
barometer
mb
20190117113222 76 133 0.0 3.0 0.00 0.00 0.00 72 1009.1
20190117112717 76 223 0.0 1.0 0.00 0.00 0.00 71 1009.0
20190117112213 76 170 0.0 3.0 0.00 0.00 0.00 72 1008.8
20190117111658 76 204 0.0 7.0 0.00 0.00 0.00 73 1008.7
20190117111151 75 121 1.0 7.0 0.00 0.00 0.00 74 1008.6
20190117110636 76 156 1.0 7.0 0.00 0.00 0.00 75 1008.6
20190117110132 76 195 2.0 6.0 0.00 0.00 0.00 75 1008.8
20190117105623 76 167 2.0 8.0 0.00 0.00 0.00 75 1008.8
20190117105125 76 222 2.0 8.0 0.00 0.00 0.00 74 1008.6
20190117104615 76 150 2.0 9.0 0.00 0.00 0.00 74 1008.6
20190117104116 76 230 3.0 9.0 0.00 0.00 0.00 74 1008.9
20190117103613 76 230 4.0 11.0 0.00 0.00 0.00 74 1008.6
20190117103117 76 223 6.0 11.0 0.00 0.00 0.00 73 1008.4
20190117102615 77 175 7.0 11.0 0.00 0.00 0.00 74 1008.6
20190117102119 77 208 4.0 11.0 0.00 0.00 0.00 73 1008.7
20190117101622 77 202 2.0 6.0 0.00 0.00 0.00 73 1008.6
20190117101132 78 207 1.0 6.0 0.00 0.00 0.00 72 1008.6
20190117100615 78 237 2.0 12.0 0.00 0.00 0.00 71 1008.1
20190117095544 78 230 5.0 13.0 0.00 0.00 0.00 71 1007.8
20190117095048 78 180 6.0 13.0 0.00 0.00 0.00 71 1007.8
20190117094537 79 196 7.0 13.0 0.00 0.00 0.00 72 1007.7
20190117094035 81 169 4.0 13.0 0.00 0.00 0.00 70 1007.7
20190117093022 84 288 0.0 2.0 0.00 0.00 0.00 62 1007.3
20190117092507 84 280 0.0 1.0 0.00 0.00 0.00 58 1007.0
20190117092016 84 180 0.0 1.0 0.00 0.00 0.00 56 1006.9
20190117091505 84 309 0.0 1.0 0.00 0.00 0.00 57 1006.6
20190117090944 84 301 0.0 0.0 0.00 0.00 0.00 59 1006.5
20190117090446 84 301 0.0 0.0 0.00 0.00 0.00 60 1006.4
20190117085952 84 301 0.0 0.0 0.00 0.00 0.00 59 1006.4
20190117085432 84 301 0.0 0.0 0.00 0.00 0.00 59 1006.2
20190117084916 85 301 0.0 0.0 0.00 0.00 0.00 58 1006.3
20190117084421 85 301 0.0 0.0 0.00 0.00 0.00 58 1006.3
20190117083915 85 301 0.0 0.0 0.00 0.00 0.00 56 1006.4
20190117083415 85 301 0.0 0.0 0.00 0.00 0.00 56 1006.4
20190117082911 85 301 0.0 0.0 0.00 0.00 0.00 57 1006.3
20190117082416 85 301 0.0 0.0 0.00 0.00 0.00 57 1006.3
20190117081923 85 296 0.0 0.0 0.00 0.00 0.00 58 1006.2
20190117081407 85 281 0.0 0.0 0.00 0.00 0.00 58 1006.0
20190117080855 85 280 0.0 0.0 0.00 0.00 0.00 58 1005.8
20190117080356 85 301 0.0 3.0 0.00 0.00 0.00 58 1005.8
20190117075853 86 283 1.0 3.0 0.00 0.00 0.00 58 1005.8
20190117075336 87 266 1.0 5.0 0.00 0.00 0.00 57 1005.7
20190117074833 89 253 1.0 5.0 0.00 0.00 0.00 49 1005.7
20190117074342 89 282 2.0 5.0 0.00 0.00 0.00 46 1005.6
20190117073846 89 324 1.0 5.0 0.00 0.00 0.00 45 1005.6
20190117073339 89 22 1.0 4.0 0.00 0.00 0.00 43 1005.6
20190117072829 89 27 0.0 4.0 0.00 0.00 0.00 43 1005.6
20190117072338 89 342 1.0 5.0 0.00 0.00 0.00 43 1005.7
20190117071833 89 349 2.0 5.0 0.00 0.00 0.00 43 1005.6
20190117070811 89 326 1.0 5.0 0.00 0.00 0.00 43 1005.6
20190117070315 89 344 1.0 5.0 0.00 0.00 0.00 43 1005.6
20190117065816 89 39 1.0 5.0 0.00 0.00 0.00 44 1005.5
20190117065258 88 35 1.0 4.0 0.00 0.00 0.00 45 1005.7
20190117064744 88 300 1.0 4.0 0.00 0.00 0.00 46 1005.7
20190117064224 88 57 1.0 6.0 0.00 0.00 0.00 47 1005.7
20190117063711 89 25 1.0 6.0 0.00 0.00 0.00 47 1005.6
20190117063155 89 18 1.0 6.0 0.00 0.00 0.00 45 1005.5
20190117062655 89 57 1.0 6.0 0.00 0.00 0.00 45 1005.7
20190117062155 89 339 1.0 3.0 0.00 0.00 0.00 45 1005.8
20190117061644 88 36 1.0 4.0 0.00 0.00 0.00 46 1005.7
20190117061144 88 318 1.0 4.0 0.00 0.00 0.00 48 1005.7
20190117060626 88 315 1.0 4.0 0.00 0.00 0.00 50 1005.7
20190117060107 88 31 1.0 4.0 0.00 0.00 0.00 51 1005.5
20190117055612 88 43 1.0 3.0 0.00 0.00 0.00 52 1005.6
20190117055105 88 57 0.0 3.0 0.00 0.00 0.00 52 1005.7
20190117054545 88 29 0.0 4.0 0.00 0.00 0.00 53 1005.8
20190117054039 88 27 0.0 4.0 0.00 0.00 0.00 54 1005.9
20190117053524 88 37 1.0 4.0 0.00 0.00 0.00 54 1005.8
20190117053018 88 57 0.0 3.0 0.00 0.00 0.00 53 1005.8
20190117052515 88 29 0.0 2.0 0.00 0.00 0.00 52 1006.0
20190117052009 88 343 0.0 2.0 0.00 0.00 0.00 51 1006.1
20190117051458 88 339 0.0 1.0 0.00 0.00 0.00 52 1006.2
20190117051003 87 239 0.0 0.0 0.00 0.00 0.00 55 1006.5
20190117050450 87 239 0.0 0.0 0.00 0.00 0.00 56 1006.5
20190117045932 86 232 0.0 0.0 0.00 0.00 0.00 56 1006.7
20190117045420 86 233 0.0 1.0 0.00 0.00 0.00 57 1006.6
20190117044906 85 196 0.0 0.0 0.00 0.00 0.00 59 1006.8
20190117044359 85 291 0.0 0.0 0.00 0.00 0.00 60 1007.0
20190117043855 84 343 0.0 0.0 0.00 0.00 0.00 61 1006.8
20190117043338 84 316 1.0 4.0 0.00 0.00 0.00 62 1006.8
20190117042842 84 297 0.0 4.0 0.00 0.00 0.00 63 1007.8
20190117042332 84 307 0.0 2.0 0.00 0.00 0.00 64 1007.4
20190117041827 84 236 1.0 8.0 0.00 0.00 0.00 65 1007.0
20190117041309 84 297 1.0 8.0 0.00 0.00 0.00 64 1007.9
20190117040819 83 192 0.0 6.0 0.00 0.00 0.00 68 1008.0
20190117040313 82 309 0.0 5.0 0.00 0.00 0.00 70 1008.1
20190117035805 83 207 0.0 4.0 0.00 0.00 0.00 73 1008.1
20190117035250 83 246 0.0 0.0 0.00 0.00 0.00 74 1008.1
20190117034758 82 231 0.0 1.0 0.00 0.00 0.00 73 1007.9
20190117034246 81 76 0.0 1.0 0.00 0.00 0.00 74 1007.4
20190117033737 81 276 0.0 0.0 0.00 0.00 0.00 75 1007.8
20190117033227 82 278 0.0 2.0 0.00 0.00 0.00 75 1007.6
20190117032722 82 283 0.0 0.0 0.00 0.00 0.00 73 1007.5
20190117032208 83 240 0.0 0.0 0.00 0.00 0.00 71 1007.4
20190117031656 84 196 0.0 0.0 0.00 0.00 0.00 70 1007.3
20190117031136 85 221 0.0 4.0 0.00 0.00 0.00 66 1007.3
20190117030633 85 276 0.0 0.0 0.00 0.00 0.00 67 1007.2
20190117030134 85 275 0.0 0.0 0.00 0.00 0.00 65 1007.2
20190117025633 84 159 0.0 0.0 0.00 0.00 0.00 66 1007.0
20190117025132 84 158 0.0 0.0 0.00 0.00 0.00 66 1007.0
20190117024631 83 207 0.0 3.0 0.00 0.00 0.00 66 1007.1
20190117023605 84 225 2.0 7.0 0.00 0.00 0.00 64 1007.2
20190117023059 84 83 2.0 8.0 0.00 0.00 0.00 63 1007.0
20190117022601 83 50 2.0 8.0 0.00 0.00 0.00 64 1007.1
20190117022106 82 56 2.0 8.0 0.00 0.00 0.00 66 1007.0
20190117021116 81 56 3.0 8.0 0.00 0.00 0.00 70 1006.4
20190117020603 80 80 4.0 8.0 0.00 0.00 0.00 71 1006.5
20190117020053 79 36 4.0 8.0 0.00 0.00 0.00 72 1006.5
20190117015558 79 57 3.0 8.0 0.00 0.00 0.00 73 1006.7
20190117015051 78 66 3.0 7.0 0.00 0.00 0.00 73 1006.9
20190117014556 78 69 3.0 7.0 0.00 0.00 0.00 74 1006.8
20190117014103 77 64 2.0 7.0 0.00 0.00 0.00 75 1006.6
20190117013607 77 66 1.0 4.0 0.00 0.00 0.00 79 1007.1
20190117013114 76 50 0.0 3.0 0.00 0.00 0.00 80 1007.3
20190117012556 76 106 0.0 2.0 0.00 0.00 0.00 80 1007.4
20190117012039 76 86 0.0 4.0 0.00 0.00 0.00 81 1007.8
20190117011532 75 72 0.0 4.0 0.00 0.00 0.00 81 1007.6
20190117011038 75 193 0.0 0.0 0.00 0.00 0.00 81 1008.1
20190117010527 75 193 0.0 0.0 0.00 0.00 0.00 81 1008.4
20190117010030 75 224 1.0 5.0 0.00 0.00 0.00 81 1008.5
20190117005522 75 213 3.0 4.0 0.00 0.00 0.00 81 1008.5
20190117005028 75 190 3.0 4.0 0.00 0.00 0.00 80 1008.6
20190117004639 76 196 1.0 10.0 0.00 0.00 0.00 79 1008.7
20190117004124 76 57 0.0 0.0 0.00 0.00 0.00 80 1008.3
20190117003607 76 35 0.0 3.0 0.00 0.00 0.00 80 1008.0
20190117003103 76 124 0.0 0.0 0.00 0.00 0.00 80 1008.1
20190117002604 76 180 1.0 0.0 0.00 0.00 0.00 78 1008.4
20190117002114 76 207 3.0 7.0 0.00 0.00 0.00 78 1008.6
20190117001613 77 190 2.0 7.0 0.00 0.00 0.00 76 1008.5
20190117001102 76 120 0.0 4.0 0.00 0.00 0.00 75 1007.7
20190117000544 76 48 0.0 3.0 0.00 0.00 0.00 75 1007.7
20190117000034 76 347 0.0 0.0 0.00 0.00 0.00 76 1008.0
20190116235538 76 347 0.0 0.0 0.00 0.00 0.00 78 1008.3
20190116235030 76 313 0.0 0.0 0.00 0.00 0.00 79 1008.4
20190116234535 75 301 0.0 0.0 0.00 0.00 0.00 79 1008.6
20190116234043 75 339 0.0 0.0 0.00 0.00 0.00 80 1008.4
20190116233524 74 48 0.0 2.0 0.00 0.00 0.00 79 1008.3
20190116233010 74 354 0.0 1.0 0.00 0.00 0.00 79 1008.4
20190116232455 74 308 0.0 4.0 0.00 0.00 0.00 80 1009.0
20190116232003 75 312 0.0 4.0 0.00 0.00 0.00 81 1009.0
20190116231506 74 288 1.0 4.0 0.00 0.00 0.00 81 1009.0
20190116230947 74 272 0.0 3.0 0.00 0.00 0.00 81 1008.8
20190116230456 74 295 0.0 1.0 0.00 0.00 0.00 83 1008.7
20190116230003 74 299 0.0 0.0 0.00 0.00 0.00 83 1008.8
20190116225448 74 287 0.0 0.0 0.00 0.00 0.00 85 1009.0
20190116224952 73 287 0.0 0.0 0.00 0.00 0.00 84 1009.0
20190116224441 73 287 0.0 1.0 0.00 0.00 0.00 85 1009.0
20190116223934 73 287 0.0 2.0 0.00 0.00 0.00 85 1009.2
20190116223430 73 299 0.0 1.0 0.00 0.00 0.00 86 1009.1
20190116222933 73 304 0.0 2.0 0.00 0.00 0.00 87 1008.9
20190116222430 73 298 0.0 2.0 0.00 0.00 0.00 88 1008.9
20190116221931 73 288 0.0 2.0 0.00 0.00 0.00 88 1009.1
20190116221417 73 240 0.0 0.0 0.00 0.00 0.00 89 1009.1
20190116220920 73 159 0.0 0.0 0.00 0.00 0.00 89 1009.1
20190116220421 73 221 0.0 3.0 0.00 0.00 0.00 89 1009.0
20190116215927 73 191 1.0 7.0 0.00 0.00 0.00 89 1008.9
20190116215422 73 162 2.0 7.0 0.00 0.00 0.00 89 1009.3
20190116214924 73 222 2.0 10.0 0.00 0.00 0.00 89 1009.1
20190116214419 73 246 3.0 10.0 0.00 0.00 0.00 89 1009.1
20190116213927 73 183 3.0 10.0 0.00 0.00 0.00 88 1009.0
20190116213436 73 206 4.0 10.0 0.00 0.00 0.00 88 1008.8
20190116212943 73 247 3.0 9.0 0.00 0.00 0.00 88 1008.5
20190116211754 74 254 3.0 9.0 0.00 0.00 0.00 88 1008.0
20190116211243 74 178 1.0 7.0 0.00 0.00 0.00 88 1007.7
20190116210750 74 251 0.0 5.0 0.00 0.00 0.00 89 1007.7
20190116210300 74 298 0.0 1.0 0.00 0.00 0.00 89 1007.1
20190116205801 74 267 0.0 1.0 0.00 0.00 0.00 89 1006.7
20190116205303 74 272 0.0 1.0 0.00 0.00 0.00 89 1006.7
20190116204747 74 351 0.0 1.0 0.00 0.00 0.00 89 1006.5
20190116204237 73 256 0.0 1.0 0.00 0.00 0.00 88 1006.6
20190116203724 73 25 0.0 0.0 0.00 0.00 0.00 88 1006.3
20190116203213 73 285 0.0 1.0 0.00 0.00 0.00 88 1006.3
20190116202658 73 236 0.0 0.0 0.00 0.00 0.00 88 1006.3
20190116183907 72 183 0.0 0.0 0.00 0.00 0.00 90 1006.8
20190116183406 72 143 0.0 1.0 0.00 0.00 0.00 89 1006.7
20190116182856 72 143 0.0 0.0 0.00 0.00 0.00 89 1006.8
20190116182405 72 189 0.0 0.0 0.00 0.00 0.00 89 1006.9
20190116181850 72 204 0.0 0.0 0.00 0.00 0.00 88 1007.1
20190116181339 73 204 0.0 2.0 0.00 0.00 0.00 88 1007.2
20190116180833 73 252 0.0 2.0 0.00 0.00 0.00 88 1007.4
20190116180328 73 256 0.0 0.0 0.00 0.00 0.00 88 1007.3
20190116175821 73 233 0.0 2.0 0.00 0.00 0.00 87 1007.2
20190116175314 73 117 0.0 2.0 0.00 0.00 0.00 87 1007.2
20190116174803 73 254 0.0 0.0 0.00 0.00 0.00 86 1007.0
20190116174249 72 183 0.0 0.0 0.00 0.00 0.00 86 1007.1
20190116173748 72 273 0.0 6.0 0.00 0.00 0.00 86 1007.1
20190116173239 72 249 0.0 6.0 0.00 0.00 0.00 86 1007.0
20190116172741 72 277 0.0 6.0 0.00 0.00 0.00 86 1007.2
20190116172237 72 285 0.0 4.0 0.00 0.00 0.00 85 1006.9
20190116171742 72 329 0.0 0.0 0.00 0.00 0.00 85 1006.6
20190116171231 72 329 0.0 0.0 0.00 0.00 0.00 85 1006.3
20190116170735 72 329 0.0 0.0 0.00 0.00 0.00 86 1006.4
20190116170216 71 306 0.0 1.0 0.00 0.00 0.00 86 1006.9
20190116165721 71 304 0.0 0.0 0.00 0.00 0.00 87 1006.8
20190116165214 71 308 0.0 1.0 0.00 0.00 0.00 87 1007.0
20190116164707 71 300 0.0 0.0 0.00 0.00 0.00 87 1006.7
20190116164208 71 196 0.0 2.0 0.00 0.00 0.00 88 1006.6
20190116163700 71 175 0.0 1.0 0.00 0.00 0.00 87 1006.6
20190116163158 71 261 0.0 2.0 0.00 0.00 0.00 88 1006.7
20190116162640 70 183 1.0 4.0 0.00 0.00 0.00 88 1007.0
20190116162145 70 225 0.0 3.0 0.00 0.00 0.00 88 1006.2
20190116161635 70 62 0.0 3.0 0.00 0.00 0.00 88 1006.0
20190116161117 70 73 0.0 0.0 0.00 0.00 0.00 88 1006.1
20190116160609 70 73 0.0 0.0 0.00 0.00 0.00 88 1006.1
20190116160118 70 76 0.0 0.0 0.00 0.00 0.00 88 1006.0
20190116155625 70 77 0.0 3.0 0.00 0.00 0.00 89 1005.9
20190116155113 70 102 0.0 3.0 0.00 0.00 0.00 89 1005.7
20190116154555 70 64 0.0 3.0 0.00 0.00 0.00 89 1005.8
20190116154100 70 56 0.0 3.0 0.00 0.00 0.00 89 1006.2
20190116153554 70 65 0.0 2.0 0.00 0.00 0.00 89 1006.3
20190116153103 70 48 0.0 2.0 0.00 0.00 0.00 89 1006.4
20190116152556 70 47 0.0 2.0 0.00 0.00 0.00 89 1006.4
20190116152039 70 39 0.0 0.0 0.00 0.00 0.00 89 1006.3
20190116151543 70 39 0.0 2.0 0.00 0.00 0.00 89 1006.3
20190116151029 70 63 0.0 2.0 0.00 0.00 0.00 89 1006.3
20190116150519 70 59 0.0 2.0 0.00 0.00 0.00 89 1006.3
20190116150004 70 57 0.0 2.0 0.00 0.00 0.00 89 1006.4
20190116145512 70 60 0.0 0.0 0.00 0.00 0.00 89 1006.5
20190116145008 70 94 0.0 0.0 0.00 0.00 0.00 89 1006.5
20190116144452 70 91 0.0 1.0 0.00 0.00 0.00 89 1006.7
20190116143942 70 140 0.0 0.0 0.00 0.00 0.00 89 1006.6
20190116143429 70 159 0.0 0.0 0.00 0.00 0.00 88 1006.5
20190116142925 71 159 0.0 0.0 0.00 0.00 0.00 88 1006.8
20190116142429 71 158 0.0 0.0 0.00 0.00 0.00 88 1007.0
20190116141911 71 158 0.0 0.0 0.00 0.00 0.00 88 1007.0
20190116141408 71 158 0.0 0.0 0.00 0.00 0.00 88 1007.2
20190116140911 71 159 0.0 0.0 0.00 0.00 0.00 88 1007.4
20190116140419 71 159 0.0 0.0 0.00 0.00 0.00 88 1007.4
20190116135900 71 159 0.0 0.0 0.00 0.00 0.00 88 1007.4
20190116135358 71 131 0.0 0.0 0.00 0.00 0.00 88 1007.5
20190116134847 71 282 0.0 1.0 0.00 0.00 0.00 88 1007.6
20190116134344 71 284 0.0 0.0 0.00 0.00 0.00 88 1007.6
20190116133845 71 283 0.0 1.0 0.00 0.00 0.00 88 1007.7
20190116133340 71 256 0.0 0.0 0.00 0.00 0.00 88 1007.5
20190116132839 71 299 0.0 2.0 0.00 0.00 0.00 89 1007.8
20190116132326 71 192 0.0 0.0 0.00 0.00 0.00 88 1007.5
20190116131809 71 164 0.0 0.0 0.00 0.00 0.00 88 1007.5
20190116131315 71 285 0.0 0.0 0.00 0.00 0.00 88 1007.5
20190116130824 71 285 0.0 0.0 0.00 0.00 0.00 88 1007.5
20190116130329 71 285 0.0 0.0 0.00 0.00 0.00 88 1007.5
20190116125811 71 279 0.0 0.0 0.00 0.00 0.00 88 1007.5
20190116125309 71 278 0.0 0.0 0.00 0.00 0.00 88 1007.6
20190116124809 71 279 0.0 0.0 0.00 0.00 0.00 88 1007.5
20190116124301 71 270 0.0 0.0 0.00 0.00 0.00 87 1007.7
20190116123750 71 270 0.0 0.0 0.00 0.00 0.00 87 1007.7
20190116123254 71 270 0.0 0.0 0.00 0.00 0.00 87 1007.6
20190116122741 71 270 0.0 0.0 0.00 0.00 0.00 87 1007.6
20190116122223 71 270 0.0 0.0 0.00 0.00 0.00 87 1007.7
20190116121723 71 269 0.0 1.0 0.00 0.00 0.00 86 1008.0
20190116121223 72 280 0.0 0.0 0.00 0.00 0.00 86 1008.1
20190116120712 72 181 0.0 4.0 0.00 0.00 0.00 86 1008.1
20190116120208 72 246 0.0 4.0 0.00 0.00 0.00 86 1008.2
20190116115707 72 298 0.0 4.0 0.00 0.00 0.00 86 1008.6
20190116115158 72 286 0.0 4.0 0.00 0.00 0.00 85 1008.6
20190116114652 72 283 0.0 0.0 0.00 0.00 0.00 85 1008.4
20190116114152 72 283 0.0 0.0 0.00 0.00 0.00 84 1008.3
20190116113657 72 306 0.0 0.0 0.00 0.00 0.00 83 1008.6